Wind_Speed
42 42 40 38 40 36 27 21 25 26 32 36 32 26 22 22 13 9 10 16 12 7 4 7 9 5 6 5 9 13 16 17 17 16 17 18 19 18 17 17 18 18 17 16 18 18 19 21 22
45 46 42 41 43 36 28 23 27 34 43 39 38 37 32 30 14 14 18 22 23 18 16 12 12 7 6 5 10 13 15 16 17 16 16 17 17 18 20 19 19 17 17 17 20 22 24 25 26
44 41 47 45 43 35 29 27 35 43 42 40 40 37 31 30 14 15 23 28 30 29 21 16 14 12 4 7 10 13 14 17 17 20 19 19 19 19 20 22 22 17 17 17 19 21 24 27 28
43 47 48 46 40 35 32 33 42 46 39 40 37 35 34 17 12 20 25 32 34 33 27 19 17 14 7 7 8 12 15 16 19 22 22 22 24 25 24 23 22 18 14 17 19 21 23 27 29
48 45 44 47 40 38 38 38 47 45 38 38 39 36 30 21 18 25 26 33 37 31 23 18 14 15 7 8 10 12 15 17 18 20 20 22 23 25 23 21 20 19 18 18 20 21 23 26 28
44 49 50 37 40 43 42 42 51 46 36 41 37 36 28 22 21 27 33 35 37 37 26 22 17 17 11 11 12 13 15 17 18 20 21 22 24 26 24 20 20 20 21 21 22 23 24 26 27
44 50 46 34 41 46 42 43 52 47 36 37 41 41 31 27 24 32 35 33 36 32 31 27 22 21 19 16 15 14 15 17 19 21 23 23 25 25 24 20 21 21 21 22 24 24 25 26 25
40 47 46 41 37 43 38 44 53 49 37 40 45 41 39 33 31 33 29 33 31 27 30 33 26 23 22 21 19 14 15 16 19 22 23 24 24 24 23 21 22 23 23 23 24 26 25 25 25
45 46 42 45 37 48 38 49 53 54 39 43 46 44 37 34 33 31 28 33 30 32 31 27 23 23 22 22 22 15 14 16 18 21 23 24 24 24 23 22 22 24 25 25 26 27 27 26 26
48 52 45 40 36 40 50 59 51 56 43 38 46 47 41 36 36 32 31 30 30 28 27 20 19 21 24 24 22 17 14 15 19 20 23 23 23 22 22 23 24 26 27 28 27 29 29 28 27
45 44 50 50 49 41 48 54 51 53 51 42 43 45 45 42 39 31 31 26 28 27 28 21 22 25 24 26 21 16 18 18 18 20 22 24 23 22 23 26 27 28 28 30 29 30 29 29 28
46 40 41 52 53 48 46 51 57 51 54 47 40 45 46 44 41 41 35 27 28 29 29 29 23 25 23 23 19 19 21 17 16 18 22 24 23 25 24 27 29 31 29 30 31 30 30 29 29
47 45 43 43 40 49 47 52 57 63 54 50 46 41 48 47 47 41 43 44 37 35 33 28 32 32 28 25 27 27 22 20 24 21 24 26 22 24 25 27 30 32 32 30 31 32 32 30 30
48 47 47 48 48 47 46 39 47 51 52 51 55 44 44 48 50 49 39 37 34 29 33 32 31 35 34 33 32 30 23 23 21 24 25 25 24 22 25 26 29 33 33 33 33 33 32 32 30
42 45 46 47 47 48 48 46 40 35 55 60 48 57 44 47 50 51 52 49 44 39 38 37 36 36 40 36 33 32 27 27 25 29 27 26 26 23 24 26 29 33 34 35 36 33 32 33 31
39 43 44 46 45 44 46 46 41 46 47 67 60 63 61 50 48 50 51 52 55 54 48 44 43 43 41 41 38 44 29 29 31 32 30 28 27 26 24 27 29 34 35 37 38 33 32 33 32
39 42 44 44 44 45 47 47 45 50 49 50 61 64 65 63 57 51 53 55 56 57 56 51 46 44 43 46 44 46 38 38 34 34 33 31 31 28 26 27 29 35 37 39 38 33 33 33 32
40 43 45 45 46 47 46 46 46 47 51 51 53 61 69 59 65 64 52 54 56 58 57 57 53 47 45 46 45 40 39 37 35 30 33 34 34 30 28 27 29 34 37 40 37 32 33 34 31
41 43 45 46 49 49 49 48 47 47 50 53 54 57 61 64 80 74 71 60 61 64 64 63 60 52 48 49 50 47 38 36 32 33 33 39 36 32 31 27 30 35 37 40 34 33 34 36 30
40 43 44 47 49 53 52 50 49 49 52 55 56 58 59 61 62 72 75 75 65 66 71 70 64 57 55 53 46 49 45 43 39 38 36 40 39 35 32 29 31 35 38 38 34 34 35 36 32
38 42 45 48 49 51 56 54 53 54 55 55 56 58 60 62 63 64 65 67 68 72 72 67 66 59 59 59 57 54 46 42 46 38 40 41 39 35 31 31 33 35 37 38 36 35 36 35 32
36 40 43 46 49 53 54 58 55 57 58 59 60 62 62 61 63 64 65 64 68 70 75 73 69 70 65 65 61 57 51 50 42 43 41 43 41 40 36 37 35 35 37 37 37 35 37 34 32
33 38 41 46 49 54 52 59 58 59 60 61 62 65 65 65 65 65 65 64 65 65 68 77 71 72 72 65 60 58 51 49 44 45 46 46 47 42 39 37 38 37 38 37 37 36 36 33 32
25 31 37 39 41 49 47 51 53 55 58 63 69 69 70 70 68 67 66 66 64 64 64 65 69 62 64 60 57 51 48 42 40 39 41 46 44 42 42 39 42 39 38 36 36 36 36 31 30
28 34 44 51 53 49 45 47 48 52 51 61 66 71 73 73 73 70 68 67 67 64 63 66 65 66 59 56 57 51 39 34 32 34 40 45 49 48 48 44 44 39 38 37 36 35 34 30 29
28 32 38 49 51 51 40 48 46 42 47 48 59 66 69 74 77 76 73 70 67 67 65 64 63 61 60 59 56 50 42 32 35 38 40 43 44 50 49 45 43 39 37 37 35 35 32 30 28
30 32 37 38 37 42 44 37 38 30 39 41 42 52 61 70 74 78 79 76 72 70 65 66 64 61 60 57 55 50 37 35 38 42 43 40 43 47 47 43 40 36 36 36 34 34 30 30 28
29 32 32 32 39 37 30 29 26 34 35 38 41 42 43 50 65 73 75 80 78 72 67 62 63 61 58 58 53 48 42 40 44 46 42 40 39 39 43 41 38 33 35 35 33 31 29 28 29
28 30 31 32 33 31 34 30 24 24 26 27 29 39 43 46 56 63 68 75 78 74 69 65 59 57 59 56 47 52 48 44 44 46 43 40 41 40 38 39 34 32 32 31 31 29 28 27 28
31 27 30 32 28 30 35 26 25 28 29 29 28 32 38 44 47 47 53 66 74 69 70 67 57 54 52 57 50 50 45 46 42 43 43 39 38 34 34 35 30 29 29 29 29 27 27 26 27
Wind_Direction
218 222 221 220 221 214 196 192 201 191 180 192 209 218 223 222 233 255 263 266 256 232 274 304 300 324 332 360 351 341 330 335 338 338 339 338 343 347 350 351 352 351 348 345 346 345 343 339 333
224 222 220 221 221 213 194 202 200 192 189 197 208 211 216 223 222 248 267 268 265 255 272 293 294 308 325 337 345 339 332 339 337 343 355 354 350 350 348 346 347 347 346 344 344 344 342 340 335
254 226 218 218 219 209 196 206 200 195 194 205 210 217 223 228 233 261 270 271 269 271 275 285 274 283 305 329 352 347 342 341 343 339 353 357 354 354 353 344 339 346 347 344 343 344 343 338 332
237 235 220 217 215 201 197 204 200 197 200 209 213 220 219 211 240 257 259 265 268 273 281 274 257 265 283 313 348 355 344 337 334 341 349 359 355 352 354 351 345 343 345 344 345 343 342 337 334
227 235 242 219 210 198 201 203 203 200 209 213 213 219 218 223 240 245 249 256 260 268 270 248 248 258 271 287 314 337 339 340 335 338 342 353 357 354 354 352 347 345 345 345 344 344 340 338 335
239 236 240 242 212 201 204 203 203 199 212 218 214 218 220 226 239 242 238 247 255 260 255 246 254 255 258 277 300 321 327 334 337 337 342 352 356 353 352 352 348 345 342 343 343 340 337 338 334
243 238 234 232 214 200 205 203 204 199 205 212 218 220 210 225 233 240 236 248 252 250 242 249 254 254 260 267 284 299 315 326 334 333 339 347 355 352 351 350 350 345 340 339 339 336 334 334 333
241 236 232 229 225 207 205 204 206 200 202 204 216 216 217 214 233 246 242 244 244 238 240 250 246 245 254 264 272 286 306 314 331 333 334 342 348 351 353 351 348 343 339 335 334 331 328 329 330
232 233 223 230 221 209 215 200 210 202 195 202 212 213 215 221 230 239 238 228 231 235 237 242 242 242 250 261 271 283 293 311 315 331 335 342 347 351 352 347 347 343 337 332 331 326 323 328 325
240 238 232 228 219 220 213 204 210 206 195 200 209 216 214 216 221 228 237 226 222 224 228 236 239 240 247 255 264 279 290 301 311 320 330 338 345 348 350 346 342 340 334 332 327 324 322 324 321
241 243 235 236 232 226 223 214 210 211 200 208 212 211 212 212 220 222 219 228 240 237 240 243 238 232 244 254 258 272 284 288 289 306 318 328 336 337 341 340 341 335 330 326 326 320 321 319 320
245 249 244 237 241 232 238 224 213 211 201 209 216 215 216 217 215 220 214 207 224 237 240 243 239 240 244 253 249 264 274 286 275 300 311 316 328 330 333 330 336 335 334 326 323 318 318 317 321
246 245 246 242 243 236 243 224 220 207 207 211 210 225 220 222 226 217 231 226 231 244 245 244 241 247 260 247 248 267 264 267 275 291 299 303 319 325 329 329 333 332 331 325 320 318 316 317 320
240 244 245 249 252 252 252 236 227 216 216 218 212 214 229 229 228 228 224 234 234 235 245 241 244 251 258 258 255 258 265 258 270 284 291 300 305 316 319 324 326 325 328 318 319 317 315 315 316
240 241 243 243 244 245 247 242 232 224 226 218 211 211 213 231 235 233 235 239 238 241 244 247 245 243 245 249 257 252 262 245 266 284 289 294 295 306 312 316 317 316 322 318 319 315 312 313 314
241 244 243 243 243 242 239 236 231 233 235 220 210 212 212 210 225 237 242 246 249 248 241 244 252 249 250 257 261 259 262 260 273 279 283 287 288 296 304 310 311 310 316 318 318 314 310 310 312
245 247 248 246 246 241 237 238 232 233 234 235 220 210 215 214 217 222 232 237 241 244 247 247 243 251 259 261 259 258 263 261 265 273 283 282 284 289 299 304 307 307 314 316 319 313 307 310 309
247 248 251 251 249 248 245 239 239 235 236 236 237 223 211 214 219 217 222 235 238 243 247 250 249 247 252 256 254 254 268 253 259 267 276 276 278 286 292 296 303 306 311 316 321 311 307 308 308
249 251 252 254 254 252 251 246 243 240 240 238 237 235 235 228 219 222 221 224 237 240 247 246 249 249 249 251 254 257 259 250 257 268 276 277 278 284 285 294 302 302 307 316 317 308 308 306 308
254 254 253 254 254 256 252 248 247 243 241 240 239 238 235 237 237 223 224 224 228 240 240 246 244 244 246 247 252 253 255 257 263 269 274 279 280 278 281 291 296 299 302 313 310 306 308 308 307
257 256 256 257 256 258 257 248 248 247 245 243 243 240 238 235 234 237 236 236 239 233 240 238 243 242 244 246 249 251 251 255 263 274 279 280 280 277 283 288 293 293 302 309 305 303 308 306 303
261 262 262 261 259 258 256 254 248 250 249 249 245 245 242 238 235 233 235 233 235 240 235 241 242 246 245 245 250 252 254 258 262 269 267 276 276 277 279 281 288 291 300 303 302 303 305 305 299
266 264 263 265 264 264 262 259 250 249 251 251 248 248 245 241 238 236 232 232 233 236 238 239 245 244 246 248 251 250 251 254 259 261 268 269 271 273 272 276 282 284 295 299 299 301 302 301 296
279 290 284 278 279 266 267 266 251 253 251 249 250 248 248 246 241 238 235 232 230 234 237 238 241 244 244 248 254 254 254 255 260 267 267 260 261 265 267 272 278 279 290 295 298 298 299 298 296
300 304 306 302 297 289 282 274 262 262 254 250 246 245 246 245 245 242 238 236 232 228 231 235 238 243 246 246 253 256 251 251 259 264 263 252 252 257 265 266 271 275 286 295 294 296 295 296 294
300 306 307 301 297 289 276 271 263 259 261 253 251 249 245 243 243 243 241 238 236 233 227 232 234 238 242 247 247 247 249 247 248 254 257 257 254 254 257 259 265 272 284 291 289 292 294 292 291
312 317 309 299 294 286 284 271 259 247 257 270 259 257 251 246 242 239 240 240 236 234 231 227 233 236 239 244 248 249 245 239 244 250 253 256 255 253 255 255 259 270 284 285 285 288 289 286 290
308 309 304 297 293 286 276 273 263 250 263 275 279 270 268 259 249 241 238 237 236 235 233 229 227 232 237 240 243 246 244 241 239 239 249 257 261 262 255 252 258 270 281 276 282 283 280 286 292
308 303 291 291 284 279 276 266 264 275 294 280 284 272 273 269 260 245 239 235 233 231 233 231 224 226 231 236 238 239 235 236 237 237 244 252 262 259 249 250 257 267 268 274 277 278 280 289 295
307 291 282 283 287 269 274 261 275 295 291 284 291 286 280 274 269 259 244 229 231 228 227 229 224 221 223 229 230 233 227 230 233 237 244 257 256 249 246 251 255 257 263 271 272 275 282 293 294
Height
5835 5840 5845 5850 5857 5862 5867 5874 5871 5873 5874 5868 5867 5869 5872 5873 5878 5881 5883 5885 5887 5890 5890 5890 5890 5889 5889 5887 5886 5885 5885 5884 5884 5882 5880 5879 5878 5876 5874 5871 5870 5869 5868 5866 5863 5861 5859 5858 5856
5828 5832 5837 5842 5848 5858 5866 5866 5869 5867 5863 5865 5864 5864 5868 5870 5872 5876 5881 5884 5885 5887 5889 5891 5889 5889 5889 5887 5886 5885 5884 5883 5883 5881 5878 5877 5876 5875 5874 5872 5869 5868 5866 5863 5861 5858 5855 5853 5852
5824 5824 5829 5831 5841 5856 5861 5861 5859 5859 5860 5860 5860 5862 5863 5867 5870 5876 5879 5881 5883 5886 5888 5888 5888 5888 5888 5887 5885 5885 5884 5883 5882 5881 5877 5875 5874 5873 5872 5871 5870 5866 5864 5861 5858 5855 5852 5850 5848
5816 5819 5821 5823 5836 5851 5854 5855 5853 5855 5857 5856 5857 5856 5859 5862 5867 5874 5877 5878 5879 5883 5885 5885 5886 5886 5886 5886 5884 5885 5884 5883 5882 5881 5878 5876 5874 5873 5871 5870 5868 5865 5862 5860 5857 5853 5850 5848 5845
5806 5811 5816 5820 5831 5843 5844 5846 5847 5851 5851 5851 5853 5852 5858 5859 5864 5869 5873 5874 5875 5878 5881 5883 5883 5884 5885 5885 5885 5884 5884 5883 5882 5880 5878 5876 5874 5872 5870 5868 5865 5862 5860 5857 5854 5850 5848 5846 5843
5799 5803 5811 5818 5826 5829 5834 5836 5840 5846 5847 5848 5849 5850 5854 5857 5861 5864 5868 5870 5872 5875 5879 5881 5881 5882 5883 5883 5884 5884 5884 5883 5881 5879 5877 5875 5873 5870 5868 5865 5862 5859 5857 5854 5852 5849 5846 5843 5841
5793 5795 5803 5811 5819 5818 5824 5828 5833 5840 5843 5845 5844 5845 5848 5854 5857 5858 5862 5864 5867 5871 5875 5878 5879 5878 5880 5881 5882 5883 5883 5882 5881 5879 5877 5874 5872 5870 5867 5864 5862 5859 5856 5854 5850 5847 5844 5841 5838
5785 5788 5793 5803 5811 5815 5812 5820 5825 5833 5837 5839 5837 5839 5843 5846 5852 5855 5860 5861 5864 5866 5870 5872 5874 5874 5876 5877 5878 5879 5881 5881 5880 5878 5875 5873 5871 5869 5866 5863 5860 5859 5855 5852 5849 5846 5843 5839 5835
5778 5780 5785 5794 5801 5805 5804 5811 5817 5824 5830 5833 5832 5834 5838 5845 5848 5850 5854 5857 5859 5862 5866 5868 5869 5871 5872 5874 5875 5877 5878 5879 5878 5876 5874 5872 5870 5868 5865 5863 5860 5857 5854 5851 5848 5845 5841 5837 5833
5773 5775 5780 5790 5788 5788 5794 5802 5807 5817 5825 5829 5828 5828 5832 5837 5841 5846 5850 5851 5854 5858 5861 5863 5865 5866 5868 5870 5871 5874 5876 5877 5876 5875 5873 5870 5869 5867 5865 5863 5859 5855 5853 5849 5847 5844 5840 5835 5831
5767 5769 5773 5778 5780 5780 5791 5796 5798 5808 5820 5822 5821 5823 5825 5829 5832 5840 5842 5846 5849 5851 5853 5858 5858 5860 5863 5865 5868 5871 5872 5873 5873 5873 5872 5870 5867 5866 5863 5861 5858 5853 5851 5847 5844 5841 5837 5833 5827
5758 5761 5763 5768 5769 5773 5781 5788 5794 5796 5814 5812 5815 5818 5819 5822 5825 5830 5835 5839 5841 5845 5849 5852 5854 5856 5859 5861 5864 5866 5868 5869 5870 5869 5870 5867 5865 5863 5861 5859 5856 5851 5847 5844 5841 5838 5834 5830 5824
5751 5755 5756 5760 5761 5766 5771 5779 5782 5792 5805 5802 5807 5810 5814 5815 5819 5823 5827 5832 5835 5839 5842 5846 5849 5851 5852 5855 5859 5862 5864 5864 5865 5866 5866 5866 5863 5860 5858 5855 5852 5848 5844 5841 5837 5834 5830 5826 5821
5742 5745 5749 5751 5754 5758 5761 5767 5770 5787 5789 5795 5797 5801 5806 5809 5812 5816 5819 5824 5827 5831 5835 5839 5843 5845 5847 5850 5854 5857 5859 5860 5860 5861 5862 5862 5860 5858 5855 5852 5849 5846 5841 5839 5835 5830 5826 5822 5818
5735 5736 5739 5740 5743 5747 5751 5756 5765 5773 5773 5778 5785 5791 5797 5802 5805 5810 5812 5814 5819 5824 5827 5832 5835 5839 5841 5845 5849 5850 5853 5853 5856 5856 5857 5857 5856 5855 5852 5849 5846 5842 5838 5836 5830 5825 5822 5817 5814
5728 5728 5729 5730 5734 5739 5743 5751 5759 5759 5757 5763 5772 5773 5782 5789 5795 5799 5801 5805 5809 5814 5820 5824 5828 5830 5834 5838 5842 5842 5846 5847 5849 5850 5851 5852 5851 5851 5848 5845 5842 5837 5834 5830 5825 5820 5817 5813 5809
5720 5719 5719 5723 5728 5733 5737 5739 5747 5750 5752 5754 5761 5767 5770 5777 5784 5790 5792 5795 5798 5802 5810 5815 5818 5822 5826 5830 5833 5838 5840 5841 5843 5844 5846 5845 5847 5846 5843 5841 5837 5832 5830 5826 5820 5815 5812 5808 5805
5712 5712 5712 5716 5720 5722 5726 5731 5734 5741 5742 5744 5747 5757 5763 5768 5775 5777 5783 5785 5789 5789 5796 5802 5807 5812 5816 5820 5824 5827 5831 5834 5837 5837 5839 5838 5839 5840 5837 5835 5831 5826 5824 5820 5814 5810 5808 5804 5801
5703 5704 5706 5708 5708 5711 5714 5721 5728 5730 5732 5734 5739 5745 5750 5757 5764 5764 5770 5775 5776 5780 5783 5788 5795 5801 5805 5809 5813 5817 5822 5826 5828 5830 5831 5832 5833 5833 5832 5829 5825 5822 5819 5814 5809 5806 5803 5800 5796
5694 5695 5697 5698 5699 5699 5704 5710 5715 5719 5721 5723 5726 5731 5738 5742 5745 5754 5755 5761 5767 5768 5773 5777 5780 5788 5794 5797 5802 5807 5813 5817 5818 5824 5824 5825 5826 5826 5824 5821 5819 5816 5814 5808 5805 5801 5798 5795 5791
5685 5684 5688 5688 5689 5691 5690 5697 5702 5705 5706 5711 5714 5717 5720 5726 5733 5739 5745 5750 5755 5760 5762 5770 5772 5776 5782 5788 5792 5798 5802 5806 5812 5815 5817 5816 5817 5818 5815 5813 5812 5810 5806 5803 5800 5796 5792 5789 5785
5676 5675 5676 5677 5677 5677 5680 5680 5689 5692 5693 5695 5698 5699 5706 5713 5717 5723 5730 5736 5740 5747 5752 5756 5763 5767 5770 5775 5781 5786 5792 5797 5803 5807 5808 5807 5808 5809 5806 5807 5804 5802 5800 5797 5794 5790 5787 5783 5779
5666 5666 5666 5665 5664 5661 5667 5661 5679 5679 5680 5680 5679 5682 5688 5695 5701 5708 5715 5721 5727 5734 5740 5746 5751 5756 5760 5764 5770 5778 5782 5789 5794 5796 5798 5797 5799 5799 5799 5798 5796 5794 5794 5791 5788 5784 5781 5777 5774
5657 5655 5652 5651 5650 5650 5648 5643 5668 5665 5662 5661 5661 5666 5670 5675 5683 5693 5701 5707 5714 5719 5726 5732 5737 5743 5749 5756 5761 5766 5773 5781 5783 5785 5787 5787 5788 5789 5790 5789 5788 5788 5787 5785 5781 5778 5775 5771 5769
5649 5645 5640 5636 5635 5635 5635 5628 5651 5644 5643 5639 5642 5645 5650 5657 5663 5672 5682 5689 5699 5706 5712 5717 5723 5731 5739 5745 5750 5755 5763 5770 5771 5774 5777 5776 5776 5780 5781 5781 5780 5781 5780 5777 5774 5771 5769 5765 5763
5641 5638 5634 5623 5620 5617 5623 5615 5630 5628 5621 5621 5622 5626 5632 5637 5643 5651 5661 5671 5683 5690 5699 5704 5711 5721 5727 5733 5740 5748 5754 5759 5762 5764 5766 5766 5768 5770 5772 5772 5771 5773 5771 5769 5766 5765 5763 5760 5757
5631 5627 5623 5616 5612 5605 5605 5607 5608 5615 5610 5608 5610 5610 5612 5616 5623 5634 5643 5652 5662 5670 5682 5692 5700 5709 5715 5721 5728 5736 5747 5749 5753 5755 5754 5756 5758 5760 5760 5762 5762 5764 5763 5762 5760 5759 5756 5754 5751
5624 5620 5615 5610 5603 5598 5596 5594 5599 5603 5604 5601 5600 5597 5598 5598 5603 5616 5624 5631 5639 5654 5666 5678 5689 5699 5706 5712 5719 5728 5735 5739 5741 5744 5744 5746 5748 5750 5752 5751 5755 5755 5755 5755 5754 5753 5750 5747 5744
5618 5613 5607 5604 5598 5593 5589 5590 5595 5597 5596 5593 5591 5590 5589 5587 5586 5594 5602 5606 5620 5636 5651 5663 5677 5688 5696 5704 5710 5718 5726 5729 5731 5734 5735 5737 5740 5741 5740 5744 5747 5747 5748 5747 5747 5746 5743 5740 5737
5611 5607 5601 5596 5594 5589 5585 5583 5589 5589 5587 5585 5584 5581 5577 5574 5574 5575 5576 5582 5604 5623 5635 5648 5663 5675 5685 5693 5702 5708 5715 5718 5720 5723 5727 5730 5731 5730 5733 5738 5739 5739 5741 5741 5741 5738 5736 5733 5732